Theta_e
320 320 320 320 320 320 319 318 317 315 313 311 309 304 301 300 299 298 298 298 298 298 298 298 298 298 297 297 297 297 298 300 301 299 297 296 297 298 300 302 304 304
318 318 319 319 319 319 318 317 315 314 310 306 302 299 298 298 298 298 297 297 297 297 297 297 297 297 297 297 297 297 298 298 299 299 298 297 296 297 300 302 302 301
316 316 317 317 317 317 317 315 313 311 306 300 298 297 297 297 297 297 297 297 297 297 297 297 297 297 297 297 297 297 297 298 299 300 299 298 297 297 301 304 303 301
314 314 315 315 315 314 313 313 311 307 301 297 297 297 297 296 296 296 296 296 296 296 296 297 297 297 296 296 296 296 298 298 299 300 300 298 297 297 300 303 303 301
312 312 312 312 311 311 310 309 306 301 297 297 297 297 296 296 296 296 296 296 296 296 297 297 297 297 296 296 296 296 297 297 298 299 299 298 297 298 300 301 300 299
311 311 311 311 311 310 309 305 300 297 297 297 297 297 297 296 296 296 296 296 296 297 296 297 297 296 296 296 296 296 297 298 298 299 299 299 299 300 301 300 298 298
311 311 311 311 311 309 306 301 298 298 298 298 298 298 297 296 296 296 296 296 296 296 296 296 296 296 297 296 297 297 299 300 300 300 301 302 301 300 300 300 298 298
311 311 311 310 308 305 301 300 299 299 299 298 298 297 297 296 296 296 296 296 296 296 296 296 295 295 296 297 298 298 300 302 302 300 302 303 301 300 300 300 298 297
311 311 309 308 306 302 300 299 298 299 299 298 297 297 297 296 296 296 295 295 295 295 295 295 295 295 295 297 297 297 300 303 302 299 301 302 301 300 300 299 298 297
310 309 308 307 304 301 300 299 298 298 298 297 296 297 297 296 295 295 295 295 295 295 295 295 295 295 295 296 297 297 299 302 302 300 301 302 301 300 299 298 298 297
307 306 306 304 302 300 299 298 297 297 297 296 297 296 296 295 295 295 295 295 295 295 295 295 294 294 294 295 297 297 298 301 302 302 301 300 300 300 299 298 298 297
305 304 303 301 300 299 298 297 296 296 296 296 297 297 296 295 294 294 294 294 295 294 294 294 294 294 294 295 297 298 298 300 302 301 299 300 300 299 299 298 297 297
302 302 301 300 299 298 297 296 296 296 295 295 296 296 295 294 294 294 294 294 294 294 294 294 294 294 294 295 297 298 299 299 300 300 299 299 300 299 299 298 297 297
301 300 299 299 298 297 296 296 296 296 295 295 295 295 294 294 294 294 294 294 294 294 294 294 294 294 294 295 296 297 299 300 300 300 299 299 299 299 299 298 297 296
299 298 298 298 297 296 296 296 296 296 296 296 296 295 295 294 294 294 294 294 294 294 294 294 294 294 294 295 296 297 298 300 300 300 299 299 299 299 299 298 297 296
297 297 297 297 296 296 296 296 296 296 296 297 298 298 295 293 293 293 293 293 293 293 293 293 293 293 294 295 296 297 298 299 300 300 299 299 298 299 299 298 297 297
296 296 296 296 296 296 295 295 295 295 296 297 299 298 295 293 293 293 293 293 293 293 293 293 293 293 294 294 296 297 297 298 299 299 299 298 298 298 298 298 297 297
296 295 296 296 296 295 295 295 295 295 295 296 297 296 294 293 293 293 293 292 293 293 293 293 292 293 293 294 294 296 297 299 299 299 299 299 297 297 298 298 297 297
295 295 295 295 295 295 295 295 295 295 295 295 296 296 295 294 293 292 292 292 292 292 292 292 292 292 292 293 293 294 295 297 298 299 299 299 298 297 298 298 297 297
295 295 295 294 294 295 295 295 294 294 294 294 295 296 296 296 294 292 292 292 292 292 292 292 292 292 292 292 292 293 293 294 295 297 298 299 298 297 297 298 297 297
296 296 295 295 294 294 294 294 294 294 294 294 294 295 296 296 295 293 292 292 292 292 292 292 292 292 292 292 292 292 292 292 293 294 297 298 298 297 297 297 297 297
298 297 296 295 294 294 294 294 294 294 293 293 293 293 293 294 294 293 293 292 292 292 292 292 292 292 292 292 292 291 292 292 292 293 294 296 297 297 297 297 297 297
299 298 297 295 295 294 294 294 294 294 294 293 293 293 293 293 293 293 292 292 292 292 292 292 292 292 292 292 291 291 291 291 292 292 292 294 296 297 297 296 296 296
300 298 297 295 295 294 294 294 294 294 294 293 293 293 293 292 292 292 292 292 292 292 292 292 292 292 292 292 291 291 291 291 291 291 291 292 294 295 296 295 295 295
299 298 296 295 295 294 294 294 294 294 294 295 295 295 293 293 293 294 294 294 294 294 293 293 292 292 292 292 291 291 291 291 291 291 291 291 291 293 294 294 294 294
299 298 296 295 295 295 295 294 294 295 296 296 297 297 295 295 296 297 297 297 297 296 296 295 293 292 292 292 291 291 291 291 291 291 291 291 291 292 293 294 294 294
Wind_Speed
11 13 15 15 16 15 12 10 10 8 7 8 10 11 11 9 9 9 8 7 6 6 6 6 6 6 6 6 7 7 6 7 8 8 7 7 8 7 8 8 7 6
10 14 16 16 16 15 13 12 11 8 8 10 12 12 11 10 9 9 8 8 7 7 7 7 7 7 7 7 7 7 7 7 8 8 7 8 8 8 9 10 10 9
12 15 16 17 16 15 14 13 10 9 11 13 14 13 12 11 10 9 9 9 8 8 7 7 8 8 8 7 7 7 8 8 8 7 7 8 8 9 10 11 11 10
12 15 17 17 15 15 15 13 12 12 14 15 14 13 13 12 11 10 10 10 9 9 8 8 8 8 9 8 8 7 7 8 8 7 7 9 9 9 10 9 9 10
11 13 15 15 15 15 15 14 14 16 17 16 15 14 13 13 12 11 10 10 9 9 9 8 8 8 9 9 9 8 8 9 9 8 8 10 10 11 10 8 8 11
14 16 17 17 16 14 13 15 17 18 17 16 16 15 14 13 12 11 10 9 8 8 8 8 7 7 8 9 10 10 10 10 10 9 10 11 12 12 10 8 10 12
17 18 18 17 16 13 14 17 18 17 16 15 15 14 13 12 11 11 10 9 8 8 8 7 6 6 7 8 10 10 11 11 10 10 11 11 11 11 9 8 11 12
18 18 17 17 17 16 17 19 18 17 17 16 16 15 13 12 11 11 10 9 9 8 8 7 7 6 6 6 8 10 11 11 9 10 12 9 9 9 9 9 11 13
20 18 18 18 18 18 18 18 18 18 17 16 16 14 12 11 11 11 9 9 8 8 8 8 7 7 6 5 7 9 12 11 9 10 11 8 8 9 9 9 11 14
20 19 19 19 19 19 19 18 17 17 16 15 15 14 12 12 11 10 9 8 8 8 7 7 8 8 6 4 5 8 11 11 10 10 10 8 9 10 11 12 13 16
21 21 21 21 21 20 20 19 17 17 16 15 15 13 12 12 11 10 8 8 8 8 7 7 8 8 6 5 5 7 10 12 11 9 8 8 9 10 12 14 16 17
23 22 22 22 22 21 20 19 18 17 16 16 14 12 12 12 11 9 8 8 8 8 8 8 8 8 7 5 6 7 9 12 11 7 8 9 8 9 12 16 17 15
23 23 23 22 21 21 20 19 18 16 16 15 13 12 12 12 10 10 9 9 9 9 8 8 8 7 7 6 6 7 8 10 10 8 10 10 7 9 12 17 17 12
23 22 22 22 21 21 20 19 18 17 16 15 14 13 13 11 11 10 10 10 10 10 9 9 8 8 8 7 7 7 8 9 10 10 11 10 6 7 11 17 17 12
23 23 22 22 22 21 19 18 17 17 17 16 15 13 13 12 11 11 10 10 10 10 10 10 9 9 9 8 8 8 8 8 10 10 10 9 6 7 12 16 17 15
23 23 23 22 21 20 18 17 17 18 17 17 15 13 12 12 11 11 11 11 11 11 11 11 11 11 10 9 9 9 9 9 11 10 9 8 7 7 11 15 16 17
24 24 23 22 21 19 19 19 19 18 18 17 15 13 13 14 12 12 12 11 11 11 11 11 12 12 11 10 9 9 10 11 11 10 8 8 8 6 9 14 15 17
24 24 23 22 21 20 20 19 19 18 18 17 15 14 14 15 13 12 12 12 12 12 12 12 13 13 12 10 9 9 9 9 9 9 6 9 11 8 9 13 13 16
24 23 22 22 21 20 20 19 18 18 17 17 16 14 14 14 14 13 13 13 12 12 12 13 13 13 13 12 10 9 8 6 6 7 4 4 9 9 9 11 12 17
23 23 23 22 21 21 21 20 19 18 17 16 15 14 13 13 14 14 13 12 12 12 12 12 13 14 13 13 12 11 9 7 5 4 3 2 5 7 9 10 13 17
24 24 23 23 22 22 21 20 19 18 17 16 15 14 13 12 12 13 13 12 12 11 11 11 13 13 13 13 13 12 11 10 9 5 2 1 2 4 6 8 13 17
25 25 24 24 23 23 22 21 20 19 18 17 16 15 14 12 11 11 12 12 11 11 11 11 12 13 13 13 13 13 12 11 11 9 5 2 1 3 5 7 12 16
26 25 25 24 24 23 23 22 21 20 18 18 17 16 15 13 12 12 12 13 12 11 11 12 13 13 13 14 14 14 13 12 12 12 9 5 2 2 3 6 11 15
26 26 26 25 25 25 24 23 21 19 18 17 16 16 15 14 13 13 13 13 13 13 13 13 14 15 15 15 15 15 14 13 12 12 11 9 4 3 6 7 11 13
26 26 26 26 25 25 24 22 21 19 18 16 15 15 15 14 13 13 12 12 13 14 15 15 16 16 16 16 16 15 14 14 13 13 13 13 9 5 5 8 12 14
26 26 25 25 26 25 23 21 21 18 16 14 13 12 12 12 11 10 10 10 11 13 14 15 16 16 17 17 17 16 16 15 15 15 14 14 12 9 9 12 15 16
Wind_Direction
206 195 193 190 185 186 187 192 207 212 189 162 148 143 139 135 136 137 136 135 135 137 136 135 133 127 120 111 104 101 95 86 74 63 60 58 53 55 57 52 42 20
200 191 193 192 189 189 193 205 211 193 154 138 138 138 136 137 136 136 135 133 134 136 136 136 133 125 118 109 104 103 98 92 84 72 62 60 56 60 58 41 27 21
194 188 190 192 193 193 198 203 193 169 147 138 137 137 137 137 136 135 135 136 137 137 136 135 129 122 114 105 101 103 100 92 85 74 63 60 57 62 66 47 25 18
183 185 191 193 191 190 189 182 166 154 146 140 138 138 138 138 139 141 140 141 142 138 134 132 126 119 113 106 103 102 100 92 85 79 65 58 55 63 70 54 22 12
166 165 170 170 165 166 168 163 155 150 146 142 141 141 141 144 146 147 146 145 143 137 132 128 123 120 115 111 106 102 98 90 85 81 65 55 54 58 59 42 15 12
132 132 138 145 151 157 159 156 153 150 150 149 147 146 148 149 150 148 145 140 132 127 124 121 120 122 119 114 108 100 92 83 78 75 62 54 52 52 47 26 10 10
131 136 144 153 160 163 158 154 153 152 153 152 149 147 148 149 146 141 136 129 123 117 114 112 113 116 119 118 108 96 86 75 67 66 61 52 46 45 39 17 6 6
151 156 160 162 162 159 155 154 154 153 153 152 148 146 149 149 143 136 131 127 123 118 114 111 106 106 110 112 105 95 85 72 58 66 67 49 36 40 33 11 359 359
166 168 167 164 160 157 156 156 156 154 155 154 150 150 152 147 137 132 129 125 119 114 111 107 101 100 100 96 93 91 86 72 53 63 68 44 24 29 20 4 357 360
170 168 165 163 160 157 156 157 156 156 156 154 151 153 152 141 133 129 125 119 115 109 104 101 98 95 92 81 75 82 87 79 59 56 62 43 21 20 16 10 7 9
165 162 161 162 161 158 157 157 156 156 156 154 153 155 149 139 132 128 124 119 113 106 100 97 95 92 92 84 71 75 84 85 72 51 48 47 27 18 17 13 13 15
162 161 162 162 162 160 159 158 158 158 157 156 158 154 142 134 131 127 123 117 107 100 97 92 90 90 91 87 79 78 81 88 85 53 42 57 35 16 14 9 14 20
164 165 165 164 164 162 160 159 159 160 157 156 157 149 137 134 134 127 119 110 101 96 93 86 86 86 86 89 86 83 82 86 85 60 49 58 33 10 8 3 11 22
167 167 167 166 165 164 163 164 162 159 156 154 151 146 143 140 132 122 111 104 97 93 91 86 86 85 85 89 85 84 85 83 80 65 53 56 36 0 356 356 4 14
168 168 168 168 168 167 167 166 165 161 156 151 148 148 146 135 122 112 103 98 93 90 90 88 85 83 83 85 83 85 88 84 82 70 51 51 44 358 347 352 359 6
168 168 170 170 170 169 167 165 165 163 158 152 152 152 141 125 114 107 99 93 89 87 86 83 78 75 75 79 81 81 84 87 85 73 48 42 44 11 349 350 354 360
170 170 171 171 171 169 166 166 165 165 162 157 158 154 137 122 115 108 99 91 87 84 81 77 72 70 69 71 76 76 79 85 81 71 45 24 31 23 349 349 355 357
171 171 171 171 170 168 167 168 167 166 164 160 159 154 140 127 116 107 98 91 87 82 80 75 71 71 69 68 71 72 76 83 78 72 48 13 20 22 351 347 353 353
172 172 171 169 169 169 169 170 168 166 164 161 158 154 146 133 119 108 100 94 88 80 78 76 71 69 66 62 60 58 61 76 80 84 85 29 29 28 2 345 345 347
172 171 169 168 168 169 169 170 168 164 162 160 157 154 150 138 124 113 104 96 90 83 77 74 70 66 61 57 52 46 42 40 49 85 124 92 41 29 16 357 343 342
170 170 169 168 168 170 170 168 165 161 157 154 151 149 147 140 130 120 111 101 92 85 77 71 68 64 58 53 47 43 38 27 27 47 94 106 48 15 14 3 344 342
170 170 170 169 170 170 168 164 161 158 154 150 147 142 139 134 126 117 110 103 93 85 77 68 65 61 57 52 43 39 37 26 25 36 43 55 45 351 357 7 357 349
173 172 171 171 170 168 165 164 162 158 152 148 143 136 131 125 118 109 102 96 89 80 73 65 60 54 50 47 41 34 31 24 23 31 33 27 15 319 326 356 359 348
176 175 173 172 171 169 168 166 161 155 150 145 139 133 127 121 115 108 100 94 86 74 65 57 51 47 42 40 36 28 25 22 19 23 26 25 19 305 302 341 5 2
176 177 175 174 172 170 168 164 157 152 148 143 138 132 127 122 116 108 99 92 82 69 58 48 41 39 35 34 32 25 19 18 17 17 20 21 22 3 343 13 31 27
176 177 176 174 172 169 166 161 155 150 144 140 137 132 127 122 115 105 89 77 67 57 48 40 34 31 28 27 25 20 17 17 15 15 17 20 27 35 36 36 35 28